Location: *
(32.3758°S, 63.1185°E)
Time: 17:55:11
(UTC+00:00)

SL-6 R/B(2) - Pass Details

Date: 02 June 2023
Orbit: 937 x 38574 km, 62.6° (Epoch: 22 September)

Event Time Altitude Azimuth Distance (km) Brightness Sun altitude
Rises 13:03:54 0° 336° (NNW) 13,168 10.1 -3.5°
Reaches altitude 10° 13:16:41 10° 335° (NNW) 8,571 9.1 -6.0°
Maximum altitude 13:34:20 81° 59° (ENE) 1,535 4.5 -9.4°
Drops below altitude 10° 13:39:38 10° 146° (SE) 2,796 5.4 -10.5°
Enters shadow 13:40:18 - 146° (SE) 3,100 5.6 -10.6°
